Meath Environmental Platform

Observations for Trim Patrick St

Time AQI Temp °C Hum % Pres Pa CO μg/m³ H₂S μg/m³ NO μg/m³ NO₂ μg/m³ O₃ μg/m³ SO₂ μg/m³ PM1 μg/m³ PM2.5 μg/m³ PM10 μg/m³
Sunday 9 August 2026
07:08 2 18 75 38,460 0.1 6.4 1.74 19.12 34.88 1.41 6.29 9.12 10.03
07:07 2 18 75 38,460 0.1 7.48 1.76 33.92 33.43 0.87 6.29 9.83 10.82
07:06 2 18 75 38,460 0.11 5.85 1.74 19.38 38.9 1.75 6.29 9.84 10.83
07:05 2 18 74 38,460 0.11 5.25 1.75 25.37 32.37 1.47 4.57 8.43 9.27
07:04 2 18 74 38,460 0.1 4.2 1.61 12.25 37.13 1.18 5.43 8.44 9.28
07:01 2 18 74 38,460 0.1 7.92 1.5 26.65 44 1.31 5.43 9.85 10.83
07:00 2 18 74 38,460 0.11 6.19 1.46 31.22 31 0.93 6.29 9.15 10.06
06:58 2 18 74 38,460 0.1 6.61 1.46 31.74 41.21 1.4 4.57 9.15 10.07
06:56 2 18 74 38,460 0.1 6.85 1.74 23.34 41.33 1.3 5.43 9.88 10.87
06:55 2 18 73 38,460 0.1 8.6 1.76 32.02 29.07 1.45 6.29 9.22 10.14
06:53 2 18 74 38,460 0.1 4.49 1.82 12 36.4 1.65 6.29 9.88 10.87
06:52 2 18 74 38,460 0.09 4.54 1.82 16.79 42.57 1.44 4.57 9.18 10.09
06:51 2 18 74 38,460 0.1 6.72 1.78 29.41 34.11 0.98 5.43 9.15 10.07
06:50 2 18 74 38,460 0.09 4.17 1.76 14.17 34.85 1.52 5.43 8.45 9.29
06:49 2 18 74 38,460 0.1 6.03 1.78 24.24 49.74 1.42 4.57 8.46 9.3
06:48 2 18 74 38,460 0.08 4.99 1.82 9.78 33.19 1.67 5.43 9.17 10.08
06:47 2 18 74 38,459 0.09 8.45 1.81 27.1 47.05 0.98 5.43 9.16 10.08
06:46 2 18 74 38,459 0.1 7.37 1.81 33.18 43.68 1.4 5.43 10.59 11.65
06:45 2 18 74 38,459 0.09 6.79 1.74 19.77 38.45 1.69 5.43 9.89 10.88
06:44 2 18 74 38,459 0.09 8.86 1.79 29.82 40.61 1.15 6.29 10.6 11.66